Time,TemperatureF,DewpointF,PressureIn,WindDirection,WindDirectionDegrees,WindSpeedMPH,WindSpeedGustMPH,Humidity,HourlyPrecipIn,Conditions,Clouds,dailyrainin,SoftwareType,DateUTC
2013-05-18 00:03:00,58.0,40.0,-100.00,ENE,65,10.0,12.0,52,0.00,,,-99.99,,2013-05-18 04:03:00,
2013-05-18 00:12:00,57.0,41.0,-100.00,ENE,65,9.0,12.0,55,0.00,,,-99.99,,2013-05-18 04:12:00,
2013-05-18 00:23:00,57.0,41.0,-100.00,East,80,9.0,14.0,54,0.00,,,-99.99,,2013-05-18 04:23:00,
2013-05-18 00:33:00,57.0,41.0,-100.00,ENE,75,10.0,12.0,54,0.00,,,-99.99,,2013-05-18 04:33:00,
2013-05-18 00:43:00,57.0,41.0,-100.00,ENE,70,9.0,12.0,55,0.00,,,-99.99,,2013-05-18 04:43:00,
2013-05-18 00:52:00,57.0,41.0,-100.00,East,80,10.0,14.0,55,0.00,,,-99.99,,2013-05-18 04:52:00,
2013-05-18 01:02:00,57.0,41.0,-100.00,ENE,75,10.0,16.0,55,0.00,,,-99.99,,2013-05-18 05:02:00,
2013-05-18 01:13:00,57.0,42.0,-100.00,ENE,70,12.0,17.0,57,0.00,,,-99.99,,2013-05-18 05:13:00,
2013-05-18 01:22:00,57.0,42.0,-100.00,ENE,70,11.0,16.0,58,0.00,,,-99.99,,2013-05-18 05:22:00,
2013-05-18 01:32:00,56.0,43.0,-100.00,ENE,70,12.0,16.0,59,0.00,,,-99.99,,2013-05-18 05:32:00,
2013-05-18 01:42:00,56.0,43.0,-100.00,ENE,60,9.0,16.0,61,0.00,,,-99.99,,2013-05-18 05:42:00,
2013-05-18 01:52:00,56.0,43.0,-100.00,ENE,65,12.0,15.0,62,0.00,,,-99.99,,2013-05-18 05:52:00,
2013-05-18 02:02:00,56.0,44.0,-100.00,ENE,65,12.0,18.0,63,0.00,,,-99.99,,2013-05-18 06:02:00,
2013-05-18 02:11:00,56.0,44.0,-100.00,ENE,65,12.0,17.0,64,0.00,,,-99.99,,2013-05-18 06:11:00,
2013-05-18 02:22:00,57.0,45.0,-100.00,ENE,70,13.0,18.0,64,0.00,,,-99.99,,2013-05-18 06:22:00,
2013-05-18 02:32:00,57.0,45.0,-100.00,ENE,70,13.0,18.0,64,0.00,,,-99.99,,2013-05-18 06:32:00,
2013-05-18 02:42:00,57.0,46.0,-100.00,ENE,65,11.0,17.0,65,0.00,,,-99.99,,2013-05-18 06:42:00,
2013-05-18 02:52:00,57.0,46.0,-100.00,ENE,70,12.0,17.0,65,0.00,,,-99.99,,2013-05-18 06:52:00,
2013-05-18 03:01:00,57.0,46.0,-100.00,ENE,70,12.0,17.0,65,0.00,,,-99.99,,2013-05-18 07:01:00,
2013-05-18 03:12:00,57.0,46.0,-100.00,East,80,11.0,16.0,64,0.00,,,-99.99,,2013-05-18 07:12:00,
2013-05-18 03:21:00,57.0,46.0,-100.00,East,85,12.0,19.0,64,0.00,,,-99.99,,2013-05-18 07:21:00,
2013-05-18 03:32:00,57.0,46.0,-100.00,East,85,12.0,16.0,65,0.00,,,-99.99,,2013-05-18 07:32:00,
2013-05-18 03:42:00,57.0,46.0,-100.00,East,90,12.0,15.0,67,0.00,,,-99.99,,2013-05-18 07:42:00,
2013-05-18 03:52:00,56.0,46.0,-100.00,East,85,9.0,12.0,67,0.00,,,-99.99,,2013-05-18 07:52:00,
2013-05-18 04:01:00,56.0,46.0,-100.00,East,85,7.0,12.0,69,0.00,,,-99.99,,2013-05-18 08:01:00,
2013-05-18 04:11:00,55.0,46.0,-100.00,ENE,65,7.0,9.0,71,0.00,,,-99.99,,2013-05-18 08:11:00,
2013-05-18 04:21:00,55.0,47.0,-100.00,NE,45,8.0,11.0,72,0.00,,,-99.99,,2013-05-18 08:21:00,
2013-05-18 04:32:00,55.0,47.0,-100.00,NE,45,8.0,11.0,72,0.00,,,-99.99,,2013-05-18 08:32:00,
2013-05-18 04:42:00,55.0,47.0,-100.00,NE,55,7.0,9.0,74,0.00,,,-99.99,,2013-05-18 08:42:00,
2013-05-18 04:52:00,55.0,47.0,-100.00,NE,55,7.0,9.0,74,0.00,,,-99.99,,2013-05-18 08:52:00,
2013-05-18 05:02:00,55.0,48.0,-100.00,NE,55,6.0,7.0,78,0.00,,,-99.99,,2013-05-18 09:02:00,
2013-05-18 05:12:00,54.0,48.0,-100.00,NE,50,5.0,7.0,79,0.00,,,-99.99,,2013-05-18 09:12:00,
2013-05-18 05:22:00,55.0,48.0,-100.00,NE,45,7.0,7.0,79,0.00,,,-99.99,,2013-05-18 09:22:00,
2013-05-18 05:33:00,55.0,48.0,-100.00,NE,45,6.0,8.0,79,0.00,,,-99.99,,2013-05-18 09:33:00,
2013-05-18 05:43:00,55.0,48.0,-100.00,NE,50,5.0,7.0,79,0.00,,,-99.99,,2013-05-18 09:43:00,
2013-05-18 05:53:00,54.0,48.0,-100.00,NE,45,5.0,6.0,80,0.00,,,-99.99,,2013-05-18 09:53:00,
2013-05-18 06:03:00,54.0,48.0,-100.00,NE,55,5.0,6.0,81,0.00,,,-99.99,,2013-05-18 10:03:00,
2013-05-18 06:12:00,54.0,49.0,-100.00,NE,50,5.0,6.0,82,0.00,,,-99.99,,2013-05-18 10:12:00,
2013-05-18 06:23:00,53.0,49.0,-100.00,NE,40,4.0,6.0,83,0.00,,,-99.99,,2013-05-18 10:23:00,
2013-05-18 06:33:00,53.0,49.0,-100.00,NE,35,4.0,6.0,85,0.00,,,-99.99,,2013-05-18 10:33:00,
2013-05-18 06:42:00,53.0,49.0,-100.00,NE,35,4.0,6.0,85,0.00,,,-99.99,,2013-05-18 10:42:00,
2013-05-18 06:52:00,55.0,49.0,-100.00,NNE,30,5.0,8.0,82,0.00,,,-99.99,,2013-05-18 10:52:00,
2013-05-18 07:03:00,54.0,49.0,-100.00,NE,35,6.0,6.0,83,0.00,,,-99.99,,2013-05-18 11:03:00,
2013-05-18 07:12:00,54.0,50.0,-100.00,NE,35,4.0,6.0,84,0.00,,,-99.99,,2013-05-18 11:12:00,
2013-05-18 07:22:00,54.0,50.0,-100.00,NE,35,4.0,6.0,84,0.00,,,-99.99,,2013-05-18 11:22:00,
2013-05-18 07:33:00,55.0,50.0,-100.00,NNE,15,4.0,6.0,84,0.00,,,-99.99,,2013-05-18 11:33:00,
2013-05-18 07:42:00,55.0,51.0,-100.00,NNE,30,6.0,7.0,84,0.00,,,-99.99,,2013-05-18 11:42:00,
2013-05-18 07:52:00,55.0,51.0,-100.00,NNE,30,6.0,7.0,84,0.00,,,-99.99,,2013-05-18 11:52:00,
2013-05-18 08:02:00,56.0,52.0,-100.00,NNE,25,6.0,9.0,84,0.00,,,-99.99,,2013-05-18 12:02:00,
2013-05-18 08:12:00,56.0,52.0,-100.00,NNE,25,6.0,9.0,84,0.00,,,-99.99,,2013-05-18 12:12:00,
2013-05-18 08:23:00,57.0,52.0,-100.00,NE,35,7.0,9.0,83,0.00,,,-99.99,,2013-05-18 12:23:00,
2013-05-18 08:33:00,59.0,53.0,-100.00,NE,45,7.0,8.0,79,0.00,,,-99.99,,2013-05-18 12:33:00,
2013-05-18 08:42:00,59.0,52.0,-100.00,NE,55,9.0,11.0,78,0.00,,,-99.99,,2013-05-18 12:42:00,
2013-05-18 08:52:00,59.0,53.0,-100.00,NE,55,6.0,10.0,79,0.00,,,-99.99,,2013-05-18 12:52:00,
2013-05-18 09:01:00,61.0,53.0,-100.00,ENE,75,6.0,10.0,73,0.00,,,-99.99,,2013-05-18 13:01:00,
2013-05-18 09:11:00,62.0,52.0,-100.00,ENE,75,7.0,10.0,71,0.00,,,-99.99,,2013-05-18 13:11:00,
2013-05-18 09:21:00,62.0,52.0,-100.00,ENE,75,7.0,11.0,69,0.00,,,-99.99,,2013-05-18 13:21:00,
2013-05-18 09:33:00,64.0,52.0,-100.00,East,85,8.0,11.0,66,0.00,,,-99.99,,2013-05-18 13:33:00,
2013-05-18 09:43:00,64.0,52.0,-100.00,East,80,7.0,11.0,65,0.00,,,-99.99,,2013-05-18 13:43:00,
2013-05-18 09:52:00,64.0,52.0,-100.00,East,80,7.0,11.0,65,0.00,,,-99.99,,2013-05-18 13:52:00,
2013-05-18 10:03:00,64.0,52.0,-100.00,East,90,8.0,12.0,64,0.00,,,-99.99,,2013-05-18 14:03:00,
2013-05-18 10:12:00,64.0,51.0,-100.00,East,100,9.0,11.0,62,0.00,,,-99.99,,2013-05-18 14:12:00,
2013-05-18 10:22:00,65.0,52.0,-100.00,SE,135,6.0,11.0,62,0.00,,,-99.99,,2013-05-18 14:22:00,
2013-05-18 10:33:00,66.0,53.0,-100.00,East,80,4.0,8.0,61,0.00,,,-99.99,,2013-05-18 14:33:00,
2013-05-18 10:42:00,67.0,53.0,-100.00,East,95,6.0,7.0,60,0.00,,,-99.99,,2013-05-18 14:42:00,
2013-05-18 10:54:00,67.0,52.0,-100.00,SE,130,7.0,9.0,58,0.00,,,-99.99,,2013-05-18 14:54:00,
2013-05-18 11:03:00,67.0,51.0,-100.00,ESE,110,4.0,7.0,56,0.00,,,-99.99,,2013-05-18 15:03:00,
2013-05-18 11:13:00,67.0,51.0,-100.00,ESE,110,4.0,7.0,56,0.00,,,-99.99,,2013-05-18 15:13:00,
2013-05-18 11:23:00,67.0,51.0,-100.00,ESE,110,4.0,7.0,56,0.00,,,-99.99,,2013-05-18 15:23:00,
2013-05-18 11:33:00,69.0,53.0,-100.00,SE,135,6.0,7.0,57,0.00,,,-99.99,,2013-05-18 15:33:00,
2013-05-18 11:43:00,69.0,53.0,-100.00,SE,135,4.0,7.0,55,0.00,,,-99.99,,2013-05-18 15:43:00,
2013-05-18 11:54:00,70.0,53.0,-100.00,ESE,120,7.0,9.0,55,0.00,,,-99.99,,2013-05-18 15:54:00,
2013-05-18 12:03:00,72.0,55.0,-100.00,ESE,110,6.0,7.0,53,0.00,,,-99.99,,2013-05-18 16:03:00,
2013-05-18 12:13:00,73.0,55.0,-100.00,East,90,6.0,8.0,53,0.00,,,-99.99,,2013-05-18 16:13:00,
2013-05-18 12:22:00,73.0,55.0,-100.00,ENE,70,3.0,7.0,52,0.00,,,-99.99,,2013-05-18 16:22:00,
2013-05-18 12:33:00,74.0,55.0,-100.00,East,90,7.0,10.0,52,0.00,,,-99.99,,2013-05-18 16:33:00,
2013-05-18 12:42:00,73.0,56.0,-100.00,SSE,150,5.0,9.0,54,0.00,,,-99.99,,2013-05-18 16:42:00,
2013-05-18 12:52:00,73.0,55.0,-100.00,SE,130,6.0,9.0,53,0.00,,,-99.99,,2013-05-18 16:52:00,
2013-05-18 13:02:00,72.0,55.0,-100.00,SE,140,6.0,11.0,54,0.00,,,-99.99,,2013-05-18 17:02:00,
2013-05-18 13:12:00,73.0,56.0,-100.00,SSE,165,4.0,8.0,55,0.00,,,-99.99,,2013-05-18 17:12:00,
2013-05-18 13:22:00,74.0,56.0,-100.00,ESE,105,1.0,7.0,53,0.00,,,-99.99,,2013-05-18 17:22:00,
2013-05-18 13:32:00,75.0,56.0,-100.00,East,95,3.0,6.0,51,0.00,,,-99.99,,2013-05-18 17:32:00,
2013-05-18 13:42:00,75.0,57.0,-100.00,East,80,6.0,9.0,52,0.00,,,-99.99,,2013-05-18 17:42:00,
2013-05-18 13:52:00,75.0,56.0,-100.00,SSE,150,3.0,9.0,50,0.00,,,-99.99,,2013-05-18 17:52:00,
2013-05-18 14:01:00,76.0,57.0,-100.00,SSE,165,5.0,10.0,51,0.00,,,-99.99,,2013-05-18 18:01:00,
2013-05-18 14:12:00,77.0,57.0,-100.00,SSE,160,4.0,9.0,50,0.00,,,-99.99,,2013-05-18 18:12:00,
2013-05-18 14:21:00,76.0,57.0,-100.00,SE,125,6.0,12.0,50,0.00,,,-99.99,,2013-05-18 18:21:00,
2013-05-18 14:32:00,78.0,57.0,-100.00,ESE,115,4.0,11.0,49,0.00,,,-99.99,,2013-05-18 18:32:00,
2013-05-18 14:42:00,77.0,58.0,-100.00,SSE,165,6.0,9.0,51,0.00,,,-99.99,,2013-05-18 18:42:00,
2013-05-18 14:52:00,77.0,58.0,-100.00,SSE,165,6.0,9.0,51,0.00,,,-99.99,,2013-05-18 18:52:00,
2013-05-18 15:02:00,76.0,59.0,-100.00,South,175,7.0,10.0,54,0.00,,,-99.99,,2013-05-18 19:02:00,
2013-05-18 15:12:00,78.0,60.0,-100.00,SE,140,8.0,11.0,52,0.00,,,-99.99,,2013-05-18 19:12:00,
2013-05-18 15:22:00,78.0,59.0,-100.00,SE,135,9.0,13.0,51,0.00,,,-99.99,,2013-05-18 19:22:00,
2013-05-18 15:32:00,78.0,58.0,-100.00,SSE,155,6.0,12.0,51,0.00,,,-99.99,,2013-05-18 19:32:00,
2013-05-18 15:42:00,78.0,59.0,-100.00,ESE,110,6.0,13.0,50,0.00,,,-99.99,,2013-05-18 19:42:00,
2013-05-18 15:52:00,78.0,58.0,-100.00,South,175,7.0,11.0,49,0.00,,,-99.99,,2013-05-18 19:52:00,
2013-05-18 16:02:00,77.0,58.0,-100.00,SSW,195,9.0,12.0,51,0.00,,,-99.99,,2013-05-18 20:02:00,
2013-05-18 16:11:00,77.0,58.0,-100.00,SSW,195,9.0,12.0,51,0.00,,,-99.99,,2013-05-18 20:11:00,
2013-05-18 16:22:00,79.0,59.0,-100.00,South,180,7.0,11.0,51,0.00,,,-99.99,,2013-05-18 20:22:00,
2013-05-18 16:32:00,78.0,59.0,-100.00,South,175,7.0,12.0,51,0.00,,,-99.99,,2013-05-18 20:32:00,
2013-05-18 16:42:00,78.0,59.0,-100.00,SSE,165,7.0,11.0,51,0.00,,,-99.99,,2013-05-18 20:42:00,
2013-05-18 16:52:00,78.0,59.0,-100.00,SSE,160,7.0,11.0,52,0.00,,,-99.99,,2013-05-18 20:52:00,
2013-05-18 17:01:00,78.0,59.0,-100.00,SE,140,4.0,9.0,52,0.00,,,-99.99,,2013-05-18 21:01:00,
2013-05-18 17:12:00,78.0,59.0,-100.00,SE,140,4.0,9.0,52,0.00,,,-99.99,,2013-05-18 21:12:00,
2013-05-18 17:21:00,78.0,59.0,-100.00,South,170,6.0,9.0,52,0.00,,,-99.99,,2013-05-18 21:21:00,
2013-05-18 17:33:00,80.0,60.0,-100.00,South,185,4.0,8.0,49,0.00,,,-99.99,,2013-05-18 21:33:00,
2013-05-18 17:43:00,80.0,59.0,-100.00,ESE,120,4.0,9.0,49,0.00,,,-99.99,,2013-05-18 21:43:00,
2013-05-18 17:53:00,80.0,59.0,-100.00,ESE,120,4.0,9.0,49,0.00,,,-99.99,,2013-05-18 21:53:00,
2013-05-18 18:03:00,79.0,59.0,-100.00,East,80,7.0,15.0,51,0.00,,,-99.99,,2013-05-18 22:03:00,
2013-05-18 18:12:00,78.0,59.0,-100.00,East,80,8.0,11.0,52,0.00,,,-99.99,,2013-05-18 22:12:00,
2013-05-18 18:23:00,78.0,58.0,-100.00,SE,125,9.0,12.0,51,0.00,,,-99.99,,2013-05-18 22:23:00,
2013-05-18 18:33:00,78.0,58.0,-100.00,East,95,7.0,9.0,50,0.00,,,-99.99,,2013-05-18 22:33:00,
2013-05-18 18:42:00,78.0,58.0,-100.00,East,90,9.0,14.0,51,0.00,,,-99.99,,2013-05-18 22:42:00,
2013-05-18 18:52:00,78.0,58.0,-100.00,East,90,9.0,14.0,51,0.00,,,-99.99,,2013-05-18 22:52:00,
2013-05-18 19:02:00,77.0,58.0,-100.00,East,100,9.0,12.0,51,0.00,,,-99.99,,2013-05-18 23:02:00,
2013-05-18 19:12:00,77.0,57.0,-100.00,ESE,105,11.0,12.0,50,0.00,,,-99.99,,2013-05-18 23:12:00,
2013-05-18 19:22:00,76.0,57.0,-100.00,East,90,7.0,11.0,51,0.00,,,-99.99,,2013-05-18 23:22:00,
2013-05-18 19:32:00,76.0,57.0,-100.00,East,95,11.0,16.0,51,0.00,,,-99.99,,2013-05-18 23:32:00,
2013-05-18 19:41:00,76.0,56.0,-100.00,East,80,12.0,15.0,51,0.00,,,-99.99,,2013-05-18 23:41:00,
2013-05-18 19:52:00,74.0,56.0,-100.00,East,85,12.0,19.0,52,0.00,,,-99.99,,2013-05-18 23:52:00,
2013-05-18 20:01:00,74.0,56.0,-100.00,East,85,12.0,19.0,52,0.00,,,-99.99,,2013-05-19 00:01:00,
2013-05-18 20:12:00,73.0,55.0,-100.00,East,90,15.0,18.0,52,0.00,,,-99.99,,2013-05-19 00:12:00,
2013-05-18 20:21:00,72.0,54.0,-100.00,East,90,14.0,17.0,52,0.00,,,-99.99,,2013-05-19 00:21:00,
2013-05-18 20:32:00,71.0,53.0,-100.00,East,85,12.0,17.0,51,0.00,,,-99.99,,2013-05-19 00:32:00,
2013-05-18 20:41:00,71.0,52.0,-100.00,East,90,13.0,16.0,51,0.00,,,-99.99,,2013-05-19 00:41:00,
2013-05-18 20:51:00,71.0,52.0,-100.00,East,90,12.0,16.0,51,0.00,,,-99.99,,2013-05-19 00:51:00,
2013-05-18 21:01:00,71.0,52.0,-100.00,East,90,12.0,16.0,51,0.00,,,-99.99,,2013-05-19 01:01:00,
2013-05-18 21:11:00,71.0,52.0,-100.00,East,90,12.0,16.0,51,0.00,,,-99.99,,2013-05-19 01:11:00,
2013-05-18 21:21:00,68.0,51.0,-100.00,East,80,10.0,13.0,53,0.00,,,-99.99,,2013-05-19 01:21:00,
2013-05-18 21:32:00,68.0,51.0,-100.00,East,80,10.0,13.0,53,0.00,,,-99.99,,2013-05-19 01:32:00,
2013-05-18 21:42:00,67.0,49.0,-100.00,East,95,10.0,12.0,52,0.00,,,-99.99,,2013-05-19 01:42:00,
2013-05-18 21:52:00,66.0,49.0,-100.00,East,85,10.0,13.0,53,0.00,,,-99.99,,2013-05-19 01:52:00,
2013-05-18 22:02:00,65.0,48.0,-100.00,East,85,9.0,12.0,53,0.00,,,-99.99,,2013-05-19 02:02:00,
2013-05-18 22:11:00,65.0,48.0,-100.00,East,85,9.0,12.0,53,0.00,,,-99.99,,2013-05-19 02:11:00,
2013-05-18 22:22:00,65.0,48.0,-100.00,East,85,9.0,12.0,53,0.00,,,-99.99,,2013-05-19 02:22:00,
2013-05-18 22:32:00,64.0,48.0,-100.00,East,85,9.0,13.0,55,0.00,,,-99.99,,2013-05-19 02:32:00,
2013-05-18 22:42:00,64.0,48.0,-100.00,ENE,75,9.0,11.0,55,0.00,,,-99.99,,2013-05-19 02:42:00,
2013-05-18 22:52:00,63.0,47.0,-100.00,East,90,8.0,10.0,56,0.00,,,-99.99,,2013-05-19 02:52:00,
2013-05-18 23:01:00,63.0,47.0,-100.00,East,90,8.0,10.0,56,0.00,,,-99.99,,2013-05-19 03:01:00,
2013-05-18 23:11:00,63.0,47.0,-100.00,East,90,8.0,10.0,56,0.00,,,-99.99,,2013-05-19 03:11:00,
2013-05-18 23:22:00,61.0,48.0,-100.00,NE,40,5.0,7.0,62,0.00,,,-99.99,,2013-05-19 03:22:00,
2013-05-18 23:33:00,60.0,48.0,-100.00,NE,45,6.0,7.0,64,0.00,,,-99.99,,2013-05-19 03:33:00,
2013-05-18 23:43:00,60.0,48.0,-100.00,NE,50,6.0,7.0,66,0.00,,,-99.99,,2013-05-19 03:43:00,
2013-05-18 23:53:00,59.0,48.0,-100.00,ENE,60,6.0,7.0,67,0.00,,,-99.99,,2013-05-19 03:53:00,